Location: Rowland
(34.5359°N, 79.2929°W)
Time: 20:18:42
(UTC+00:00)

Transit 2A Rocket - Pass Details

Date: 12 October 2022
Orbit: 589 x 911 km, 66.7° (Epoch: 03 December)

Event Time Altitude Azimuth Distance (km) Brightness Sun altitude
Rises 16:06:20 0° 357° (N) 3,057 7.7 45.8°
Reaches altitude 10° 16:10:56 10° 37° (NE) 2,234 7.3 46.1°
Maximum altitude 16:11:56 11° 49° (NE) 2,219 7.3 46.2°
Drops below altitude 10° 16:12:57 10° 60° (ENE) 2,275 7.5 46.2°
Sets 16:17:52 0° 99° (E) 3,302 8.5 46.5°
